Location: Newark
(53.3503°N, 9.6158°W)
Time: 14:59:50
(UTC+00:00)

Envisat - Pass Details

Date: 25 October 2019
Orbit: 764 x 766 km, 98.1° (Epoch: 17 November)

Event Time Altitude Azimuth Distance (km) Brightness Sun altitude
Rises 06:25:23 0° 24° (NNE) 3,246 6.5 -9.2°
Reaches altitude 10° 06:28:19 10° 41° (NE) 2,314 6.0 -8.8°
Maximum altitude 06:32:02 20° 88° (E) 1,718 6.1 -8.2°
Drops below altitude 10° 06:35:43 10° 135° (SE) 2,300 6.4 -7.7°
Sets 06:38:37 0° 152° (SSE) 3,221 6.8 -7.3°
